Time,TemperatureF,DewpointF,PressureIn,WindDirection,WindDirectionDegrees,WindSpeedMPH,WindSpeedGustMPH,Humidity,HourlyPrecipIn,Conditions,Clouds,dailyrainin,SoftwareType,DateUTC
2013-04-10 00:00:00,65.3,54.9,29.90,ESE,120,0.0,1.0,69,0.22,,---,0.00,VWS V14.01,2013-04-10 04:00:00,
2013-04-10 00:05:00,65.9,54.7,29.90,ESE,120,0.0,0.0,67,0.00,,---,0.00,VWS V14.01,2013-04-10 04:05:00,
2013-04-10 00:10:00,66.3,54.6,29.90,ESE,120,0.0,0.0,66,0.00,,---,0.00,VWS V14.01,2013-04-10 04:10:00,
2013-04-10 00:15:00,66.6,54.9,29.90,ESE,120,0.0,0.0,66,0.00,,---,0.00,VWS V14.01,2013-04-10 04:15:00,
2013-04-10 00:20:00,66.6,54.5,29.90,ESE,120,0.0,0.0,65,0.00,,---,0.00,VWS V14.01,2013-04-10 04:20:00,
2013-04-10 00:25:00,67.2,54.6,29.90,ESE,120,0.0,0.0,64,0.00,,---,0.00,VWS V14.01,2013-04-10 04:25:00,
2013-04-10 00:30:00,68.0,54.5,29.90,ESE,120,0.0,0.0,62,0.00,,---,0.00,VWS V14.01,2013-04-10 04:30:00,
2013-04-10 00:35:00,68.5,54.5,29.90,ESE,120,0.0,1.0,61,0.00,,---,0.00,VWS V14.01,2013-04-10 04:35:00,
2013-04-10 00:40:00,68.8,54.8,29.90,ESE,120,0.0,1.0,61,0.00,,---,0.00,VWS V14.01,2013-04-10 04:40:00,
2013-04-10 00:45:00,68.9,54.5,29.90,South,181,1.0,1.0,60,0.00,,---,0.00,VWS V14.01,2013-04-10 04:45:00,
2013-04-10 00:50:00,69.4,54.5,29.90,South,186,0.0,1.0,59,0.00,,---,0.00,VWS V14.01,2013-04-10 04:50:00,
2013-04-10 00:55:00,69.6,54.2,29.90,South,186,0.0,1.0,58,0.00,,---,0.00,VWS V14.01,2013-04-10 04:55:00,
2013-04-10 01:00:00,69.8,54.4,29.90,South,186,0.0,1.0,58,0.00,,---,0.00,VWS V14.01,2013-04-10 05:00:00,
2013-04-10 01:05:00,69.9,54.5,29.90,South,186,0.0,1.0,58,0.00,,---,0.00,VWS V14.01,2013-04-10 05:05:00,
2013-04-10 01:10:00,70.2,54.3,29.90,South,186,0.0,1.0,57,0.00,,---,0.00,VWS V14.01,2013-04-10 05:10:00,
2013-04-10 01:15:00,70.4,54.5,29.89,SW,217,1.0,2.0,57,0.00,,---,0.00,VWS V14.01,2013-04-10 05:15:00,
2013-04-10 01:20:00,70.7,54.2,29.90,SW,217,1.0,2.0,56,0.00,,---,0.00,VWS V14.01,2013-04-10 05:20:00,
2013-04-10 01:25:00,70.7,54.2,29.89,SW,234,0.0,2.0,56,0.00,,---,0.00,VWS V14.01,2013-04-10 05:25:00,
2013-04-10 01:30:00,70.9,54.4,29.89,SW,234,1.0,2.0,56,0.00,,---,0.00,VWS V14.01,2013-04-10 05:30:00,
2013-04-10 01:35:00,71.1,54.1,29.89,SW,236,0.0,2.0,55,0.00,,---,0.00,VWS V14.01,2013-04-10 05:35:00,
2013-04-10 01:40:00,71.0,54.5,29.89,SW,236,0.0,2.0,56,0.00,,---,0.00,VWS V14.01,2013-04-10 05:40:00,
2013-04-10 01:45:00,71.2,54.2,29.89,SW,236,0.0,2.0,55,0.00,,---,0.00,VWS V14.01,2013-04-10 05:45:00,
2013-04-10 01:50:00,71.5,54.5,29.89,WSW,243,0.0,2.0,55,0.00,,---,0.00,VWS V14.01,2013-04-10 05:50:00,
2013-04-10 01:55:00,71.6,54.1,29.89,SW,226,0.0,3.0,54,0.00,,---,0.00,VWS V14.01,2013-04-10 05:55:00,
2013-04-10 02:00:00,71.5,54.5,29.90,SW,226,0.0,3.0,55,0.00,,---,0.00,VWS V14.01,2013-04-10 06:00:00,
2013-04-10 02:05:00,71.6,54.1,29.89,WSW,248,2.0,2.0,54,0.00,,---,0.00,VWS V14.01,2013-04-10 06:05:00,
2013-04-10 02:10:00,71.7,54.2,29.89,WSW,248,0.0,2.0,54,0.00,,---,0.00,VWS V14.01,2013-04-10 06:10:00,
2013-04-10 02:15:00,71.6,54.1,29.89,WSW,250,0.0,2.0,54,0.00,,---,0.00,VWS V14.01,2013-04-10 06:15:00,
2013-04-10 02:20:00,71.6,54.6,29.89,WSW,253,1.0,3.0,55,0.00,,---,0.00,VWS V14.01,2013-04-10 06:20:00,
2013-04-10 02:25:00,71.8,54.3,29.89,WNW,282,1.0,3.0,54,0.00,,---,0.00,VWS V14.01,2013-04-10 06:25:00,
2013-04-10 02:30:00,72.0,54.5,29.89,WNW,282,0.0,3.0,54,0.00,,---,0.00,VWS V14.01,2013-04-10 06:30:00,
2013-04-10 02:35:00,72.1,54.6,29.89,West,266,1.0,2.0,54,0.00,,---,0.00,VWS V14.01,2013-04-10 06:35:00,
2013-04-10 02:40:00,72.0,54.5,29.89,WSW,253,0.0,2.0,54,0.00,,---,0.00,VWS V14.01,2013-04-10 06:40:00,
2013-04-10 02:45:00,72.1,54.6,29.89,WSW,253,0.0,2.0,54,0.00,,---,0.00,VWS V14.01,2013-04-10 06:45:00,
2013-04-10 02:50:00,72.2,54.7,29.89,SW,231,1.0,2.0,54,0.00,,---,0.00,VWS V14.01,2013-04-10 06:50:00,
2013-04-10 02:55:00,72.0,54.5,29.88,SW,231,1.0,2.0,54,0.00,,---,0.00,VWS V14.01,2013-04-10 06:55:00,
2013-04-10 03:00:00,72.0,54.5,29.89,WNW,282,0.0,2.0,54,0.00,,---,0.00,VWS V14.01,2013-04-10 07:00:00,
2013-04-10 03:05:00,71.8,54.3,29.88,West,281,0.0,2.0,54,0.00,,---,0.00,VWS V14.01,2013-04-10 07:05:00,
2013-04-10 03:10:00,71.7,54.7,29.89,West,281,0.0,2.0,55,0.00,,---,0.00,VWS V14.01,2013-04-10 07:10:00,
2013-04-10 03:15:00,71.7,54.7,29.89,West,281,0.0,2.0,55,0.00,,---,0.00,VWS V14.01,2013-04-10 07:15:00,
2013-04-10 03:20:00,71.6,54.6,29.89,West,281,0.0,2.0,55,0.00,,---,0.00,VWS V14.01,2013-04-10 07:20:00,
2013-04-10 03:25:00,71.3,54.3,29.89,West,281,0.0,2.0,55,0.00,,---,0.00,VWS V14.01,2013-04-10 07:25:00,
2013-04-10 03:30:00,71.2,54.7,29.89,West,281,0.0,2.0,56,0.00,,---,0.00,VWS V14.01,2013-04-10 07:30:00,
2013-04-10 03:35:00,71.0,54.5,29.89,West,281,0.0,1.0,56,0.00,,---,0.00,VWS V14.01,2013-04-10 07:35:00,
2013-04-10 03:40:00,71.0,54.5,29.89,West,281,0.0,1.0,56,0.00,,---,0.00,VWS V14.01,2013-04-10 07:40:00,
2013-04-10 03:45:00,70.8,54.3,29.89,West,281,0.0,1.0,56,0.00,,---,0.00,VWS V14.01,2013-04-10 07:45:00,
2013-04-10 03:50:00,70.6,54.2,29.89,West,281,0.0,1.0,56,0.00,,---,0.00,VWS V14.01,2013-04-10 07:50:00,
2013-04-10 03:55:00,70.3,54.4,29.89,West,281,0.0,1.0,57,0.00,,---,0.00,VWS V14.01,2013-04-10 07:55:00,
2013-04-10 04:00:00,70.1,54.7,29.90,West,281,0.0,1.0,58,0.00,,---,0.00,VWS V14.01,2013-04-10 08:00:00,
2013-04-10 04:05:00,69.9,54.5,29.90,West,281,0.0,1.0,58,0.00,,---,0.00,VWS V14.01,2013-04-10 08:05:00,
2013-04-10 04:10:00,69.8,54.4,29.90,West,281,0.0,1.0,58,0.00,,---,0.00,VWS V14.01,2013-04-10 08:10:00,
2013-04-10 04:15:00,69.7,54.3,29.90,West,281,0.0,1.0,58,0.00,,---,0.00,VWS V14.01,2013-04-10 08:15:00,
2013-04-10 04:20:00,69.6,54.2,29.90,West,281,0.0,1.0,58,0.00,,---,0.00,VWS V14.01,2013-04-10 08:20:00,
2013-04-10 04:25:00,69.5,54.6,29.90,West,281,0.0,1.0,59,0.00,,---,0.00,VWS V14.01,2013-04-10 08:25:00,
2013-04-10 04:30:00,69.5,54.6,29.90,West,281,0.0,1.0,59,0.00,,---,0.00,VWS V14.01,2013-04-10 08:30:00,
2013-04-10 04:35:00,69.4,54.5,29.90,West,281,0.0,1.0,59,0.00,,---,0.00,VWS V14.01,2013-04-10 08:35:00,
2013-04-10 04:40:00,69.4,54.5,29.90,West,281,0.0,1.0,59,0.00,,---,0.00,VWS V14.01,2013-04-10 08:40:00,
2013-04-10 04:45:00,69.4,54.5,29.91,West,281,0.0,1.0,59,0.00,,---,0.00,VWS V14.01,2013-04-10 08:45:00,
2013-04-10 04:50:00,69.5,54.6,29.91,West,281,0.0,1.0,59,0.00,,---,0.00,VWS V14.01,2013-04-10 08:50:00,
2013-04-10 04:55:00,69.6,54.7,29.91,West,281,0.0,1.0,59,0.00,,---,0.00,VWS V14.01,2013-04-10 08:55:00,
2013-04-10 05:00:00,69.5,54.6,29.91,West,281,0.0,1.0,59,0.00,,---,0.00,VWS V14.01,2013-04-10 09:00:00,
2013-04-10 05:05:00,69.2,54.7,29.91,West,281,0.0,0.0,60,0.00,,---,0.00,VWS V14.01,2013-04-10 09:05:00,
2013-04-10 05:10:00,69.0,54.5,29.91,West,281,0.0,0.0,60,0.00,,---,0.00,VWS V14.01,2013-04-10 09:10:00,
2013-04-10 05:15:00,68.8,54.8,29.92,West,281,0.0,0.0,61,0.00,,---,0.00,VWS V14.01,2013-04-10 09:15:00,
2013-04-10 05:20:00,68.8,54.8,29.91,West,281,0.0,1.0,61,0.00,,---,0.00,VWS V14.01,2013-04-10 09:20:00,
2013-04-10 05:25:00,69.0,55.0,29.92,West,281,0.0,1.0,61,0.00,,---,0.00,VWS V14.01,2013-04-10 09:25:00,
2013-04-10 05:30:00,69.1,55.1,29.92,West,281,0.0,2.0,61,0.00,,---,0.00,VWS V14.01,2013-04-10 09:30:00,
2013-04-10 05:35:00,69.0,55.0,29.92,West,281,0.0,1.0,61,0.00,,---,0.00,VWS V14.01,2013-04-10 09:35:00,
2013-04-10 05:40:00,69.0,55.0,29.92,WSW,252,1.0,2.0,61,0.00,,---,0.00,VWS V14.01,2013-04-10 09:40:00,
2013-04-10 05:45:00,68.9,54.9,29.92,WSW,256,0.0,2.0,61,0.00,,---,0.00,VWS V14.01,2013-04-10 09:45:00,
2013-04-10 05:50:00,68.6,54.6,29.92,WSW,256,0.0,2.0,61,0.00,,---,0.00,VWS V14.01,2013-04-10 09:50:00,
2013-04-10 05:55:00,68.5,54.5,29.92,WSW,256,0.0,2.0,61,0.00,,---,0.00,VWS V14.01,2013-04-10 09:55:00,
2013-04-10 06:00:00,68.3,54.8,29.92,WSW,256,0.0,2.0,62,0.00,,---,0.00,VWS V14.01,2013-04-10 10:00:00,
2013-04-10 06:05:00,68.4,54.9,29.92,WSW,256,0.0,1.0,62,0.00,,---,0.00,VWS V14.01,2013-04-10 10:05:00,
2013-04-10 06:10:00,68.2,54.7,29.93,WSW,256,0.0,1.0,62,0.00,,---,0.00,VWS V14.01,2013-04-10 10:10:00,
2013-04-10 06:15:00,68.0,54.5,29.93,WSW,256,0.0,1.0,62,0.00,,---,0.00,VWS V14.01,2013-04-10 10:15:00,
2013-04-10 06:20:00,67.8,54.3,29.93,WSW,256,0.0,1.0,62,0.00,,---,0.00,VWS V14.01,2013-04-10 10:20:00,
2013-04-10 06:25:00,67.7,54.7,29.93,WSW,256,0.0,1.0,63,0.00,,---,0.00,VWS V14.01,2013-04-10 10:25:00,
2013-04-10 06:30:00,67.7,54.7,29.93,WSW,256,0.0,1.0,63,0.00,,---,0.00,VWS V14.01,2013-04-10 10:30:00,
2013-04-10 06:35:00,67.5,54.9,29.93,WSW,256,1.0,1.0,64,0.00,,---,0.00,VWS V14.01,2013-04-10 10:35:00,
2013-04-10 06:40:00,67.8,54.8,29.93,WSW,256,0.0,1.0,63,0.00,,---,0.00,VWS V14.01,2013-04-10 10:40:00,
2013-04-10 06:45:00,67.8,54.8,29.93,WSW,256,0.0,1.0,63,0.00,,---,0.00,VWS V14.01,2013-04-10 10:45:00,
2013-04-10 06:50:00,67.6,55.0,29.93,WSW,256,0.0,1.0,64,0.00,,---,0.00,VWS V14.01,2013-04-10 10:50:00,
2013-04-10 06:55:00,67.5,54.9,29.93,WSW,256,0.0,1.0,64,0.00,,---,0.00,VWS V14.01,2013-04-10 10:55:00,
2013-04-10 07:00:00,67.2,54.6,29.93,WSW,256,0.0,1.0,64,0.00,,---,0.00,VWS V14.01,2013-04-10 11:00:00,
2013-04-10 07:05:00,66.9,54.8,29.93,WSW,256,0.0,1.0,65,0.00,,---,0.00,VWS V14.01,2013-04-10 11:05:00,
2013-04-10 07:10:00,66.6,55.3,29.93,WSW,256,0.0,1.0,67,0.00,,---,0.00,VWS V14.01,2013-04-10 11:10:00,
2013-04-10 07:15:00,66.3,55.0,29.93,WSW,256,1.0,1.0,67,0.00,,---,0.00,VWS V14.01,2013-04-10 11:15:00,
2013-04-10 07:20:00,66.8,55.1,29.93,WSW,256,2.0,2.0,66,0.00,,---,0.00,VWS V14.01,2013-04-10 11:20:00,
2013-04-10 07:25:00,67.4,55.2,29.94,WSW,256,0.0,2.0,65,0.00,,---,0.00,VWS V14.01,2013-04-10 11:25:00,
2013-04-10 07:30:00,67.8,55.2,29.94,WSW,256,0.0,2.0,64,0.00,,---,0.00,VWS V14.01,2013-04-10 11:30:00,
2013-04-10 07:35:00,68.2,55.6,29.94,WSW,256,0.0,1.0,64,0.00,,---,0.00,VWS V14.01,2013-04-10 11:35:00,
2013-04-10 07:40:00,68.5,55.9,29.94,WSW,256,0.0,1.0,64,0.00,,---,0.00,VWS V14.01,2013-04-10 11:40:00,
2013-04-10 07:45:00,68.8,56.1,29.94,WSW,256,0.0,1.0,64,0.00,,---,0.00,VWS V14.01,2013-04-10 11:45:00,
2013-04-10 07:50:00,69.0,55.9,29.94,WSW,256,1.0,2.0,63,0.00,,---,0.00,VWS V14.01,2013-04-10 11:50:00,
2013-04-10 07:55:00,69.4,55.8,29.95,WSW,255,0.0,2.0,62,0.00,,---,0.00,VWS V14.01,2013-04-10 11:55:00,
2013-04-10 08:00:00,70.1,56.0,29.95,WSW,255,0.0,2.0,61,0.00,,---,0.00,VWS V14.01,2013-04-10 12:00:00,
2013-04-10 08:05:00,70.7,56.2,29.95,NNW,330,2.0,2.0,60,0.00,,---,0.00,VWS V14.01,2013-04-10 12:05:00,
2013-04-10 08:10:00,71.5,56.4,29.95,WNW,288,0.0,2.0,59,0.00,,---,0.00,VWS V14.01,2013-04-10 12:10:00,
2013-04-10 08:15:00,72.2,56.6,29.95,WNW,288,0.0,2.0,58,0.00,,---,0.00,VWS V14.01,2013-04-10 12:15:00,
2013-04-10 08:20:00,72.7,56.1,29.95,NW,310,0.0,4.0,56,0.00,,---,0.00,VWS V14.01,2013-04-10 12:20:00,
2013-04-10 08:25:00,73.3,56.2,29.95,West,262,0.0,4.0,55,0.00,,---,0.00,VWS V14.01,2013-04-10 12:25:00,
2013-04-10 08:30:00,73.9,56.7,29.95,West,281,0.0,4.0,55,0.00,,---,0.00,VWS V14.01,2013-04-10 12:30:00,
2013-04-10 08:35:00,74.8,57.1,29.95,West,281,0.0,1.0,54,0.00,,---,0.00,VWS V14.01,2013-04-10 12:35:00,
2013-04-10 08:40:00,75.2,56.4,29.94,WSW,237,0.0,2.0,52,0.00,,---,0.00,VWS V14.01,2013-04-10 12:40:00,
2013-04-10 08:45:00,75.6,56.8,29.94,WSW,237,0.0,2.0,52,0.00,,---,0.00,VWS V14.01,2013-04-10 12:45:00,
2013-04-10 08:50:00,76.5,55.9,29.94,WSW,240,0.0,2.0,49,0.00,,---,0.00,VWS V14.01,2013-04-10 12:50:00,
2013-04-10 08:55:00,77.1,56.5,29.94,WSW,240,0.0,2.0,49,0.00,,---,0.00,VWS V14.01,2013-04-10 12:55:00,
2013-04-10 09:00:00,77.6,57.0,29.94,WSW,240,0.0,2.0,49,0.00,,---,0.00,VWS V14.01,2013-04-10 13:00:00,
2013-04-10 09:05:00,78.2,56.3,29.94,NW,306,0.0,2.0,47,0.00,,---,0.00,VWS V14.01,2013-04-10 13:05:00,
2013-04-10 09:10:00,79.0,56.5,29.94,NW,306,0.0,2.0,46,0.00,,---,0.00,VWS V14.01,2013-04-10 13:10:00,
2013-04-10 09:15:00,79.7,57.1,29.94,NW,306,0.0,2.0,46,0.00,,---,0.00,VWS V14.01,2013-04-10 13:15:00,
2013-04-10 09:20:00,79.7,55.9,29.94,WNW,292,0.0,2.0,44,0.00,,---,0.00,VWS V14.01,2013-04-10 13:20:00,
2013-04-10 09:25:00,80.0,55.5,29.94,WNW,291,0.0,2.0,43,0.00,,---,0.00,VWS V14.01,2013-04-10 13:25:00,
2013-04-10 09:30:00,80.4,55.9,29.94,West,276,4.0,5.0,43,0.00,,---,0.00,VWS V14.01,2013-04-10 13:30:00,
2013-04-10 09:35:00,80.3,57.0,29.94,WNW,293,1.0,3.0,45,0.00,,---,0.00,VWS V14.01,2013-04-10 13:35:00,
2013-04-10 09:40:00,80.9,56.3,29.94,WSW,248,0.0,3.0,43,0.00,,---,0.00,VWS V14.01,2013-04-10 13:40:00,
2013-04-10 09:45:00,81.7,56.4,29.94,West,259,0.0,3.0,42,0.00,,---,0.00,VWS V14.01,2013-04-10 13:45:00,
2013-04-10 09:50:00,81.9,55.9,29.94,WNW,288,1.0,4.0,41,0.00,,---,0.00,VWS V14.01,2013-04-10 13:50:00,
2013-04-10 09:55:00,81.2,56.6,29.93,SE,137,0.0,4.0,43,0.00,,---,0.00,VWS V14.01,2013-04-10 13:55:00,
2013-04-10 10:00:00,82.0,56.7,29.93,West,259,0.0,4.0,42,0.00,,---,0.00,VWS V14.01,2013-04-10 14:00:00,
2013-04-10 10:05:00,82.4,56.4,29.93,WSW,240,1.0,3.0,41,0.00,,---,0.00,VWS V14.01,2013-04-10 14:05:00,
2013-04-10 10:10:00,83.4,56.6,29.93,WNW,292,0.0,3.0,40,0.00,,---,0.00,VWS V14.01,2013-04-10 14:10:00,
2013-04-10 10:15:00,84.5,56.1,29.93,West,269,2.0,5.0,38,0.00,,---,0.00,VWS V14.01,2013-04-10 14:15:00,
2013-04-10 10:20:00,84.3,56.7,29.93,West,274,0.0,5.0,39,0.00,,---,0.00,VWS V14.01,2013-04-10 14:20:00,
2013-04-10 10:25:00,84.4,56.8,29.93,WNW,285,2.0,5.0,39,0.00,,---,0.00,VWS V14.01,2013-04-10 14:25:00,
2013-04-10 10:30:00,84.5,56.1,29.93,WSW,244,1.0,5.0,38,0.00,,---,0.00,VWS V14.01,2013-04-10 14:30:00,
2013-04-10 10:35:00,84.4,56.8,29.93,NNE,22,2.0,3.0,39,0.00,,---,0.00,VWS V14.01,2013-04-10 14:35:00,
2013-04-10 10:40:00,84.6,56.2,29.93,NNW,330,1.0,5.0,38,0.00,,---,0.00,VWS V14.01,2013-04-10 14:40:00,
2013-04-10 10:45:00,84.6,56.9,29.93,NNE,21,1.0,8.0,39,0.00,,---,0.00,VWS V14.01,2013-04-10 14:45:00,
2013-04-10 10:50:00,85.3,57.6,29.93,West,278,1.0,8.0,39,0.00,,---,0.00,VWS V14.01,2013-04-10 14:50:00,
2013-04-10 10:55:00,85.4,56.9,29.93,WNW,294,3.0,8.0,38,0.00,,---,0.00,VWS V14.01,2013-04-10 14:55:00,
2013-04-10 11:00:00,85.6,57.1,29.93,WSW,250,1.0,8.0,38,0.00,,---,0.00,VWS V14.01,2013-04-10 15:00:00,
2013-04-10 11:05:00,85.6,57.1,29.93,WNW,290,3.0,5.0,38,0.00,,---,0.00,VWS V14.01,2013-04-10 15:05:00,
2013-04-10 11:10:00,86.2,57.6,29.93,WNW,284,2.0,5.0,38,0.00,,---,0.00,VWS V14.01,2013-04-10 15:10:00,
2013-04-10 11:15:00,86.2,57.6,29.93,WSW,250,3.0,5.0,38,0.00,,---,0.00,VWS V14.01,2013-04-10 15:15:00,
2013-04-10 11:20:00,86.1,57.5,29.93,ESE,102,1.0,5.0,38,0.00,,---,0.00,VWS V14.01,2013-04-10 15:20:00,
2013-04-10 11:25:00,86.4,57.1,29.92,West,277,1.0,5.0,37,0.00,,---,0.00,VWS V14.01,2013-04-10 15:25:00,
2013-04-10 11:30:00,86.5,57.9,29.93,NW,307,0.0,5.0,38,0.00,,---,0.00,VWS V14.01,2013-04-10 15:30:00,
2013-04-10 11:35:00,86.9,57.5,29.92,West,277,2.0,6.0,37,0.00,,---,0.00,VWS V14.01,2013-04-10 15:35:00,
2013-04-10 11:40:00,87.1,58.4,29.92,West,278,2.0,6.0,38,0.00,,---,0.00,VWS V14.01,2013-04-10 15:40:00,
2013-04-10 11:45:00,87.6,58.1,29.92,WNW,288,0.0,6.0,37,0.00,,---,0.00,VWS V14.01,2013-04-10 15:45:00,
2013-04-10 11:50:00,87.5,58.0,29.92,SE,136,1.0,6.0,37,0.00,,---,0.00,VWS V14.01,2013-04-10 15:50:00,
2013-04-10 11:55:00,87.8,58.3,29.92,East,81,1.0,6.0,37,0.00,,---,0.00,VWS V14.01,2013-04-10 15:55:00,
2013-04-10 12:00:00,87.7,59.0,29.92,WNW,292,4.0,6.0,38,0.00,,---,0.00,VWS V14.01,2013-04-10 16:00:00,
2013-04-10 12:05:00,87.8,58.3,29.91,WSW,252,0.0,5.0,37,0.00,,---,0.00,VWS V14.01,2013-04-10 16:05:00,
2013-04-10 12:10:00,88.3,58.0,29.91,SW,226,2.0,5.0,36,0.00,,---,0.00,VWS V14.01,2013-04-10 16:10:00,
2013-04-10 12:15:00,88.4,58.1,29.92,NNW,328,1.0,5.0,36,0.00,,---,0.00,VWS V14.01,2013-04-10 16:15:00,
2013-04-10 12:20:00,89.0,59.4,29.91,NW,304,0.0,5.0,37,0.00,,---,0.00,VWS V14.01,2013-04-10 16:20:00,
2013-04-10 12:25:00,88.5,57.4,29.91,WNW,295,0.0,5.0,35,0.00,,---,0.00,VWS V14.01,2013-04-10 16:25:00,
2013-04-10 12:30:00,88.7,57.6,29.91,WSW,255,2.0,8.0,35,0.00,,---,0.00,VWS V14.01,2013-04-10 16:30:00,
2013-04-10 12:35:00,88.7,58.3,29.91,West,259,2.0,3.0,36,0.00,,---,0.00,VWS V14.01,2013-04-10 16:35:00,
2013-04-10 12:40:00,88.9,57.7,29.90,WNW,284,1.0,5.0,35,0.00,,---,0.00,VWS V14.01,2013-04-10 16:40:00,
2013-04-10 12:45:00,89.3,58.1,29.90,SSW,201,2.0,6.0,35,0.00,,---,0.00,VWS V14.01,2013-04-10 16:45:00,
2013-04-10 12:50:00,89.4,58.2,29.90,WSW,241,2.0,7.0,35,0.00,,---,0.00,VWS V14.01,2013-04-10 16:50:00,
2013-04-10 12:55:00,89.1,57.1,29.90,West,274,3.0,7.0,34,0.00,,---,0.00,VWS V14.01,2013-04-10 16:55:00,
2013-04-10 13:00:00,89.3,58.1,29.90,West,267,3.0,7.0,35,0.00,,---,0.00,VWS V14.01,2013-04-10 17:00:00,
2013-04-10 13:05:00,89.7,58.4,29.90,West,274,1.0,6.0,35,0.00,,---,0.00,VWS V14.01,2013-04-10 17:05:00,
2013-04-10 13:10:00,90.2,58.9,29.90,WNW,297,1.0,6.0,35,0.00,,---,0.00,VWS V14.01,2013-04-10 17:10:00,
2013-04-10 13:15:00,90.0,57.9,29.89,West,278,5.0,6.0,34,0.00,,---,0.00,VWS V14.01,2013-04-10 17:15:00,
2013-04-10 13:20:00,89.4,58.2,29.90,West,276,3.0,9.0,35,0.00,,---,0.00,VWS V14.01,2013-04-10 17:20:00,
2013-04-10 13:25:00,89.7,60.0,29.89,West,268,0.0,9.0,37,0.00,,---,0.00,VWS V14.01,2013-04-10 17:25:00,
2013-04-10 13:30:00,90.5,57.5,29.89,West,274,2.0,9.0,33,0.00,,---,0.00,VWS V14.01,2013-04-10 17:30:00,
2013-04-10 13:35:00,89.8,57.7,29.89,West,278,6.0,7.0,34,0.00,,---,0.00,VWS V14.01,2013-04-10 17:35:00,
2013-04-10 13:40:00,89.8,57.7,29.89,West,276,3.0,7.0,34,0.00,,---,0.00,VWS V14.01,2013-04-10 17:40:00,
2013-04-10 13:45:00,89.9,58.6,29.89,WSW,238,2.0,7.0,35,0.00,,---,0.00,VWS V14.01,2013-04-10 17:45:00,
2013-04-10 13:50:00,89.8,57.7,29.89,WNW,290,1.0,7.0,34,0.00,,---,0.00,VWS V14.01,2013-04-10 17:50:00,
2013-04-10 13:55:00,90.2,58.9,29.88,WNW,290,2.0,7.0,35,0.00,,---,0.00,VWS V14.01,2013-04-10 17:55:00,
2013-04-10 14:00:00,90.5,57.5,29.88,West,274,2.0,7.0,33,0.00,,---,0.00,VWS V14.01,2013-04-10 18:00:00,
2013-04-10 14:05:00,90.6,58.4,29.88,WNW,292,0.0,5.0,34,0.00,,---,0.00,VWS V14.01,2013-04-10 18:05:00,
2013-04-10 14:10:00,90.4,58.2,29.88,West,259,2.0,5.0,34,0.00,,---,0.00,VWS V14.01,2013-04-10 18:10:00,
2013-04-10 14:15:00,90.6,58.4,29.87,West,272,0.0,6.0,34,0.00,,---,0.00,VWS V14.01,2013-04-10 18:15:00,
2013-04-10 14:20:00,90.8,58.6,29.87,WSW,254,2.0,7.0,34,0.00,,---,0.00,VWS V14.01,2013-04-10 18:20:00,
2013-04-10 14:25:00,91.2,58.9,29.87,WSW,250,3.0,7.0,34,0.00,,---,0.00,VWS V14.01,2013-04-10 18:25:00,
2013-04-10 14:30:00,90.3,57.3,29.87,East,100,0.0,7.0,33,0.00,,---,0.00,VWS V14.01,2013-04-10 18:30:00,
2013-04-10 14:35:00,90.4,58.2,29.86,ENE,68,3.0,5.0,34,0.00,,---,0.00,VWS V14.01,2013-04-10 18:35:00,
2013-04-10 14:40:00,91.0,57.9,29.86,NW,311,3.0,8.0,33,0.00,,---,0.00,VWS V14.01,2013-04-10 18:40:00,
2013-04-10 14:45:00,91.2,58.1,29.86,SW,235,2.0,8.0,33,0.00,,---,0.00,VWS V14.01,2013-04-10 18:45:00,
2013-04-10 14:50:00,90.6,57.6,29.86,West,262,2.0,8.0,33,0.00,,---,0.00,VWS V14.01,2013-04-10 18:50:00,
2013-04-10 14:55:00,90.4,59.0,29.86,NW,308,1.0,8.0,35,0.00,,---,0.00,VWS V14.01,2013-04-10 18:55:00,
2013-04-10 15:00:00,90.7,58.5,29.85,WNW,284,2.0,8.0,34,0.00,,---,0.00,VWS V14.01,2013-04-10 19:00:00,
2013-04-10 15:05:00,91.1,58.0,29.86,WNW,284,2.0,7.0,33,0.00,,---,0.00,VWS V14.01,2013-04-10 19:05:00,
2013-04-10 15:10:00,91.3,58.2,29.85,East,95,0.0,7.0,33,0.00,,---,0.00,VWS V14.01,2013-04-10 19:10:00,
2013-04-10 15:15:00,91.6,59.3,29.85,ENE,58,1.0,7.0,34,0.00,,---,0.00,VWS V14.01,2013-04-10 19:15:00,
2013-04-10 15:20:00,91.3,57.3,29.85,West,264,1.0,7.0,32,0.00,,---,0.00,VWS V14.01,2013-04-10 19:20:00,
2013-04-10 15:25:00,91.2,57.2,29.84,West,262,0.0,7.0,32,0.00,,---,0.00,VWS V14.01,2013-04-10 19:25:00,
2013-04-10 15:30:00,90.9,56.1,29.84,NW,304,2.0,7.0,31,0.00,,---,0.00,VWS V14.01,2013-04-10 19:30:00,
2013-04-10 15:35:00,90.5,56.6,29.84,SW,228,1.0,5.0,32,0.00,,---,0.00,VWS V14.01,2013-04-10 19:35:00,
2013-04-10 15:40:00,90.6,56.7,29.84,NW,304,0.0,5.0,32,0.00,,---,0.00,VWS V14.01,2013-04-10 19:40:00,
2013-04-10 15:45:00,91.0,56.2,29.83,NW,310,1.0,6.0,31,0.00,,---,0.00,VWS V14.01,2013-04-10 19:45:00,
2013-04-10 15:50:00,91.2,57.2,29.83,WNW,298,1.0,6.0,32,0.00,,---,0.00,VWS V14.01,2013-04-10 19:50:00,
2013-04-10 15:55:00,91.4,58.3,29.83,West,281,1.0,6.0,33,0.00,,---,0.00,VWS V14.01,2013-04-10 19:55:00,
2013-04-10 16:00:00,91.4,56.5,29.83,NW,309,0.0,6.0,31,0.00,,---,0.00,VWS V14.01,2013-04-10 20:00:00,
2013-04-10 16:05:00,91.0,56.2,29.82,East,94,1.0,6.0,31,0.00,,---,0.00,VWS V14.01,2013-04-10 20:05:00,
2013-04-10 16:10:00,90.7,55.9,29.82,West,273,3.0,6.0,31,0.00,,---,0.00,VWS V14.01,2013-04-10 20:10:00,
2013-04-10 16:15:00,91.0,55.3,29.82,West,277,1.0,7.0,30,0.00,,---,0.00,VWS V14.01,2013-04-10 20:15:00,
2013-04-10 16:20:00,91.1,55.4,29.82,West,262,1.0,7.0,30,0.00,,---,0.00,VWS V14.01,2013-04-10 20:20:00,
2013-04-10 16:25:00,91.0,55.3,29.82,WNW,289,2.0,7.0,30,0.00,,---,0.00,VWS V14.01,2013-04-10 20:25:00,
2013-04-10 16:30:00,90.9,56.1,29.82,West,276,1.0,7.0,31,0.00,,---,0.00,VWS V14.01,2013-04-10 20:30:00,
2013-04-10 16:35:00,91.0,55.3,29.82,WNW,291,0.0,3.0,30,0.00,,---,0.00,VWS V14.01,2013-04-10 20:35:00,
2013-04-10 16:40:00,90.9,55.2,29.81,WNW,300,2.0,5.0,30,0.00,,---,0.00,VWS V14.01,2013-04-10 20:40:00,
2013-04-10 16:45:00,90.4,54.8,29.82,WSW,255,0.0,5.0,30,0.00,,---,0.00,VWS V14.01,2013-04-10 20:45:00,
2013-04-10 16:50:00,90.4,55.7,29.81,WNW,283,0.0,6.0,31,0.00,,---,0.00,VWS V14.01,2013-04-10 20:50:00,
2013-04-10 16:55:00,90.4,56.6,29.81,West,264,2.0,6.0,32,0.00,,---,0.00,VWS V14.01,2013-04-10 20:55:00,
2013-04-10 17:00:00,90.5,54.9,29.81,West,259,1.0,6.0,30,0.00,,---,0.00,VWS V14.01,2013-04-10 21:00:00,
2013-04-10 17:05:00,90.3,55.6,29.81,West,264,0.0,3.0,31,0.00,,---,0.00,VWS V14.01,2013-04-10 21:05:00,
2013-04-10 17:10:00,90.4,55.7,29.81,West,264,3.0,3.0,31,0.00,,---,0.00,VWS V14.01,2013-04-10 21:10:00,
2013-04-10 17:15:00,90.1,55.4,29.81,West,269,1.0,4.0,31,0.00,,---,0.00,VWS V14.01,2013-04-10 21:15:00,
2013-04-10 17:20:00,89.8,55.2,29.81,NW,316,0.0,5.0,31,0.00,,---,0.00,VWS V14.01,2013-04-10 21:20:00,
2013-04-10 17:25:00,89.8,55.2,29.81,NW,309,1.0,5.0,31,0.00,,---,0.00,VWS V14.01,2013-04-10 21:25:00,
2013-04-10 17:30:00,89.9,55.2,29.81,West,267,1.0,8.0,31,0.00,,---,0.00,VWS V14.01,2013-04-10 21:30:00,
2013-04-10 17:35:00,89.9,55.2,29.81,West,276,3.0,3.0,31,0.00,,---,0.00,VWS V14.01,2013-04-10 21:35:00,
2013-04-10 17:40:00,89.5,55.8,29.81,West,260,2.0,5.0,32,0.00,,---,0.00,VWS V14.01,2013-04-10 21:40:00,
2013-04-10 17:45:00,89.7,55.1,29.80,WSW,248,1.0,7.0,31,0.00,,---,0.00,VWS V14.01,2013-04-10 21:45:00,
2013-04-10 17:50:00,89.8,55.2,29.81,WNW,290,1.0,7.0,31,0.00,,---,0.00,VWS V14.01,2013-04-10 21:50:00,
2013-04-10 17:55:00,89.7,55.1,29.81,SSW,196,1.0,7.0,31,0.00,,---,0.00,VWS V14.01,2013-04-10 21:55:00,
2013-04-10 18:00:00,89.7,54.2,29.80,WNW,285,1.0,7.0,30,0.00,,---,0.00,VWS V14.01,2013-04-10 22:00:00,
2013-04-10 18:05:00,89.5,54.0,29.80,SW,230,1.0,5.0,30,0.00,,---,0.00,VWS V14.01,2013-04-10 22:05:00,
2013-04-10 18:10:00,89.4,54.8,29.79,West,268,1.0,5.0,31,0.00,,---,0.00,VWS V14.01,2013-04-10 22:10:00,
2013-04-10 18:15:00,89.4,54.8,29.79,WSW,258,0.0,5.0,31,0.00,,---,0.00,VWS V14.01,2013-04-10 22:15:00,
2013-04-10 18:20:00,89.2,54.6,29.78,WSW,257,1.0,5.0,31,0.00,,---,0.00,VWS V14.01,2013-04-10 22:20:00,
2013-04-10 18:25:00,88.8,54.3,29.78,East,89,0.0,5.0,31,0.00,,---,0.00,VWS V14.01,2013-04-10 22:25:00,
2013-04-10 18:30:00,88.6,54.1,29.78,WNW,288,1.0,5.0,31,0.00,,---,0.00,VWS V14.01,2013-04-10 22:30:00,
2013-04-10 18:35:00,88.3,54.7,29.77,WNW,287,0.0,2.0,32,0.00,,---,0.00,VWS V14.01,2013-04-10 22:35:00,
2013-04-10 18:40:00,88.0,54.5,29.77,WSW,248,1.0,3.0,32,0.00,,---,0.00,VWS V14.01,2013-04-10 22:40:00,
2013-04-10 18:45:00,87.7,54.2,29.77,WNW,284,0.0,5.0,32,0.00,,---,0.00,VWS V14.01,2013-04-10 22:45:00,
2013-04-10 18:50:00,87.4,54.8,29.77,SW,230,1.0,5.0,33,0.00,,---,0.00,VWS V14.01,2013-04-10 22:50:00,
2013-04-10 18:55:00,87.3,54.7,29.77,North,1,1.0,5.0,33,0.00,,---,0.00,VWS V14.01,2013-04-10 22:55:00,
2013-04-10 19:00:00,87.4,54.0,29.77,West,281,1.0,5.0,32,0.00,,---,0.00,VWS V14.01,2013-04-10 23:00:00,
2013-04-10 19:05:00,87.3,53.9,29.77,West,261,0.0,3.0,32,0.00,,---,0.00,VWS V14.01,2013-04-10 23:05:00,
2013-04-10 19:10:00,86.8,55.1,29.78,West,261,0.0,3.0,34,0.00,,---,0.00,VWS V14.01,2013-04-10 23:10:00,
2013-04-10 19:15:00,84.6,56.2,29.78,ESE,120,1.0,4.0,38,0.00,,---,0.00,VWS V14.01,2013-04-10 23:15:00,
2013-04-10 19:20:00,83.4,56.6,29.77,ESE,103,0.0,4.0,40,0.00,,---,0.00,VWS V14.01,2013-04-10 23:20:00,
2013-04-10 19:25:00,82.5,56.5,29.78,East,98,0.0,4.0,41,0.00,,---,0.00,VWS V14.01,2013-04-10 23:25:00,
2013-04-10 19:30:00,81.7,57.0,29.77,East,98,0.0,4.0,43,0.00,,---,0.00,VWS V14.01,2013-04-10 23:30:00,
2013-04-10 19:35:00,81.2,56.6,29.77,East,101,1.0,2.0,43,0.00,,---,0.00,VWS V14.01,2013-04-10 23:35:00,
2013-04-10 19:40:00,80.9,56.3,29.77,East,101,0.0,2.0,43,0.00,,---,0.00,VWS V14.01,2013-04-10 23:40:00,
2013-04-10 19:45:00,80.4,56.5,29.77,East,101,2.0,2.0,44,0.00,,---,0.00,VWS V14.01,2013-04-10 23:45:00,
2013-04-10 19:50:00,79.9,56.7,29.77,East,101,0.0,2.0,45,0.00,,---,0.00,VWS V14.01,2013-04-10 23:50:00,
2013-04-10 19:55:00,79.3,56.8,29.76,East,101,0.0,2.0,46,0.00,,---,0.00,VWS V14.01,2013-04-10 23:55:00,
2013-04-10 20:00:00,79.0,56.5,29.76,East,101,0.0,4.0,46,0.00,,---,0.00,VWS V14.01,2013-04-11 00:00:00,
2013-04-10 20:05:00,78.5,56.6,29.76,East,101,0.0,1.0,47,0.00,,---,0.00,VWS V14.01,2013-04-11 00:05:00,
2013-04-10 20:10:00,78.0,56.7,29.76,East,101,0.0,1.0,48,0.00,,---,0.00,VWS V14.01,2013-04-11 00:10:00,
2013-04-10 20:15:00,77.6,56.4,29.76,East,101,0.0,1.0,48,0.00,,---,0.00,VWS V14.01,2013-04-11 00:15:00,
2013-04-10 20:20:00,77.4,56.2,29.77,East,101,0.0,1.0,48,0.00,,---,0.00,VWS V14.01,2013-04-11 00:20:00,
2013-04-10 20:25:00,77.1,56.5,29.76,East,101,0.0,1.0,49,0.00,,---,0.00,VWS V14.01,2013-04-11 00:25:00,
2013-04-10 20:30:00,76.9,56.3,29.76,East,101,0.0,1.0,49,0.00,,---,0.00,VWS V14.01,2013-04-11 00:30:00,
2013-04-10 20:35:00,76.5,56.5,29.76,East,101,0.0,0.0,50,0.00,,---,0.00,VWS V14.01,2013-04-11 00:35:00,
2013-04-10 20:40:00,76.4,56.4,29.76,East,101,0.0,1.0,50,0.00,,---,0.00,VWS V14.01,2013-04-11 00:40:00,
2013-04-10 20:45:00,76.3,56.3,29.76,East,101,0.0,1.0,50,0.00,,---,0.00,VWS V14.01,2013-04-11 00:45:00,
2013-04-10 20:50:00,76.3,56.3,29.76,East,94,0.0,1.0,50,0.00,,---,0.00,VWS V14.01,2013-04-11 00:50:00,
2013-04-10 20:55:00,76.3,56.3,29.76,East,94,1.0,1.0,50,0.00,,---,0.00,VWS V14.01,2013-04-11 00:55:00,
2013-04-10 21:00:00,76.4,56.4,29.77,East,92,0.0,2.0,50,0.00,,---,0.00,VWS V14.01,2013-04-11 01:00:00,
2013-04-10 21:05:00,76.1,56.1,29.77,East,92,0.0,1.0,50,0.00,,---,0.00,VWS V14.01,2013-04-11 01:05:00,
2013-04-10 21:10:00,75.7,56.3,29.77,East,92,0.0,1.0,51,0.00,,---,0.00,VWS V14.01,2013-04-11 01:10:00,
2013-04-10 21:15:00,75.4,56.0,29.77,East,92,0.0,1.0,51,0.00,,---,0.00,VWS V14.01,2013-04-11 01:15:00,
2013-04-10 21:20:00,75.6,56.2,29.77,East,92,0.0,1.0,51,0.00,,---,0.00,VWS V14.01,2013-04-11 01:20:00,
2013-04-10 21:25:00,75.6,56.2,29.77,East,92,0.0,1.0,51,0.00,,---,0.00,VWS V14.01,2013-04-11 01:25:00,
2013-04-10 21:30:00,75.0,56.7,29.78,East,92,0.0,1.0,53,0.00,,---,0.00,VWS V14.01,2013-04-11 01:30:00,
2013-04-10 21:35:00,74.3,56.6,29.78,East,92,0.0,0.0,54,0.00,,---,0.00,VWS V14.01,2013-04-11 01:35:00,
2013-04-10 21:40:00,74.1,56.4,29.78,East,92,0.0,0.0,54,0.00,,---,0.00,VWS V14.01,2013-04-11 01:40:00,
2013-04-10 21:45:00,73.7,57.0,29.79,East,92,0.0,0.0,56,0.00,,---,0.00,VWS V14.01,2013-04-11 01:45:00,
2013-04-10 21:50:00,73.6,56.5,29.79,East,92,0.0,0.0,55,0.00,,---,0.00,VWS V14.01,2013-04-11 01:50:00,
2013-04-10 21:55:00,73.7,56.5,29.79,East,92,0.0,0.0,55,0.00,,---,0.00,VWS V14.01,2013-04-11 01:55:00,
2013-04-10 22:00:00,73.5,56.4,29.79,East,92,0.0,0.0,55,0.00,,---,0.00,VWS V14.01,2013-04-11 02:00:00,
2013-04-10 22:05:00,73.3,56.7,29.79,East,92,0.0,0.0,56,0.00,,---,0.00,VWS V14.01,2013-04-11 02:05:00,
2013-04-10 22:10:00,73.2,56.1,29.79,East,96,1.0,1.0,55,0.00,,---,0.00,VWS V14.01,2013-04-11 02:10:00,
2013-04-10 22:15:00,74.5,56.3,29.79,NNW,337,0.0,2.0,53,0.00,,---,0.00,VWS V14.01,2013-04-11 02:15:00,
2013-04-10 22:20:00,75.8,56.4,29.78,NNE,24,2.0,2.0,51,0.00,,---,0.00,VWS V14.01,2013-04-11 02:20:00,
2013-04-10 22:25:00,77.6,56.4,29.78,SW,219,0.0,3.0,48,0.00,,---,0.00,VWS V14.01,2013-04-11 02:25:00,
2013-04-10 22:30:00,78.6,56.7,29.78,WSW,245,0.0,3.0,47,0.00,,---,0.00,VWS V14.01,2013-04-11 02:30:00,
2013-04-10 22:35:00,79.2,56.7,29.78,West,281,0.0,3.0,46,0.00,,---,0.00,VWS V14.01,2013-04-11 02:35:00,
2013-04-10 22:40:00,79.7,56.5,29.78,NW,304,0.0,4.0,45,0.00,,---,0.00,VWS V14.01,2013-04-11 02:40:00,
2013-04-10 22:45:00,79.9,56.7,29.79,SW,231,0.0,4.0,45,0.00,,---,0.00,VWS V14.01,2013-04-11 02:45:00,
2013-04-10 22:50:00,80.2,56.3,29.79,West,271,3.0,4.0,44,0.00,,---,0.00,VWS V14.01,2013-04-11 02:50:00,
2013-04-10 22:55:00,80.5,56.6,29.78,SSW,208,1.0,4.0,44,0.00,,---,0.00,VWS V14.01,2013-04-11 02:55:00,
2013-04-10 23:00:00,80.5,56.6,29.79,WSW,241,1.0,4.0,44,0.00,,---,0.00,VWS V14.01,2013-04-11 03:00:00,
2013-04-10 23:05:00,80.8,56.9,29.79,West,276,0.0,5.0,44,0.00,,---,0.00,VWS V14.01,2013-04-11 03:05:00,
2013-04-10 23:10:00,80.7,56.8,29.79,West,265,3.0,5.0,44,0.00,,---,0.00,VWS V14.01,2013-04-11 03:10:00,
2013-04-10 23:15:00,80.5,56.6,29.80,West,272,0.0,5.0,44,0.00,,---,0.00,VWS V14.01,2013-04-11 03:15:00,
2013-04-10 23:20:00,80.5,57.2,29.80,West,273,2.0,5.0,45,0.00,,---,0.00,VWS V14.01,2013-04-11 03:20:00,
2013-04-10 23:25:00,80.4,57.1,29.80,WSW,247,0.0,5.0,45,0.00,,---,0.00,VWS V14.01,2013-04-11 03:25:00,
2013-04-10 23:30:00,80.3,57.0,29.80,WSW,247,0.0,5.0,45,0.00,,---,0.00,VWS V14.01,2013-04-11 03:30:00,
2013-04-10 23:35:00,80.2,57.0,29.80,WSW,247,0.0,1.0,45,0.00,,---,0.00,VWS V14.01,2013-04-11 03:35:00,
2013-04-10 23:40:00,80.1,56.9,29.80,WSW,247,0.0,2.0,45,0.00,,---,0.00,VWS V14.01,2013-04-11 03:40:00,
2013-04-10 23:45:00,80.1,56.9,29.80,WSW,237,0.0,2.0,45,0.00,,---,0.00,VWS V14.01,2013-04-11 03:45:00,
2013-04-10 23:50:00,80.0,56.8,29.81,WSW,238,0.0,2.0,45,0.00,,---,0.00,VWS V14.01,2013-04-11 03:50:00,
2013-04-10 23:55:00,80.0,56.8,29.81,WSW,238,1.0,2.0,45,0.00,,---,0.00,VWS V14.01,2013-04-11 03:55:00,